^^
Meteo Knjazevac Station Historical Data
Daily Summary for February 25, 2021 Units:  English    Metric   Both
Daily Weekly Monthly Yearly Custom
  High: Low: Average:
Temperature: 73.6 °F 61.9 °F 65.3 °F
Dew Point: 64.4 °F 59.2 °F 61 °F
Humidity: 93% 73% 86%
Wind Speed: 6mph 0mph 2.1mph
Wind Gust: 11mph - -
Wind- - SSW
Pressure: 30.07 in 30.01 in -
Precipitation: 0.01 in    
Historical Graphs
 
 
Tabular Data for February 25, 2021
Time Temperature Dew Point Pressure Wind Wind Speed Wind Gust Humidity Rainfall Rate (Hourly) solar Conditions
00:00 65.5 °F 60.5 °F 30.07 in WSW 2 mph 4 mph 84% 0.00 in 0 W/m2
00:10 65.5 °F 60.5 °F 30.07 in WSW 2 mph 5 mph 84% 0.00 in 0 W/m2
00:20 65.3 °F 60.7 °F 30.07 in WSW 1 mph 5 mph 85% 0.00 in 0 W/m2
00:30 65.1 °F 60.5 °F 30.07 in SW 1 mph 3 mph 85% 0.00 in 0 W/m2
00:40 65 °F 60.4 °F 30.07 in SSE 1 mph 2 mph 85% 0.00 in 0 W/m2
00:50 64.8 °F 60.1 °F 30.07 in SSW 1 mph 3 mph 85% 0.00 in 0 W/m2
01:00 64.6 °F 60 °F 30.07 in SSW 1 mph 2 mph 85% 0.00 in 0 W/m2
01:10 64.2 °F 59.9 °F 30.07 in WSW 2 mph 3 mph 86% 0.00 in 0 W/m2
01:20 64 °F 59.8 °F 30.07 in WSW 1 mph 3 mph 86% 0.00 in 0 W/m2
01:30 63.9 °F 60.2 °F 30.06 in SW 2 mph 3 mph 88% 0.00 in 0 W/m2
01:40 64 °F 60.1 °F 30.06 in Calm   3 mph 87% 0.00 in 0 W/m2
01:50 64 °F 60.1 °F 30.06 in Calm   2 mph 87% 0.00 in 0 W/m2
02:00 64.2 °F 60.6 °F 30.06 in Calm   5 mph 88% 0.00 in 0 W/m2
02:10 64.2 °F 60.6 °F 30.06 in SSE 2 mph 4 mph 88% 0.00 in 0 W/m2
02:20 64.2 °F 60.6 °F 30.05 in SE 2 mph 5 mph 88% 0.00 in 0 W/m2
02:30 64 °F 59.8 °F 30.05 in West 1 mph 3 mph 86% 0.00 in 0 W/m2
02:40 63.9 °F 60.2 °F 30.05 in West 2 mph 4 mph 88% 0.00 in 0 W/m2
02:50 63.5 °F 59.9 °F 30.05 in West 1 mph 3 mph 88% 0.00 in 0 W/m2
03:00 63.3 °F 59.7 °F 30.05 in Calm   3 mph 88% 0.00 in 0 W/m2
03:10 63.3 °F 59.7 °F 30.04 in West 1 mph 3 mph 88% 0.00 in 0 W/m2
03:20 63.1 °F 59.5 °F 30.04 in Calm   2 mph 88% 0.00 in 0 W/m2
03:30 63.1 °F 59.5 °F 30.04 in Calm   2 mph 88% 0.00 in 0 W/m2
03:40 63 °F 59.3 °F 30.04 in Calm     88% 0.00 in 0 W/m2
03:50 62.8 °F 59.2 °F 30.05 in NW 1 mph 3 mph 88% 0.00 in 0 W/m2
04:00 62.6 °F 59.3 °F 30.05 in West 2 mph 5 mph 89% 0.00 in 0 W/m2
04:10 62.6 °F 59.3 °F 30.06 in Calm   4 mph 89% 0.00 in 0 W/m2
04:20 62.6 °F 59.6 °F 30.06 in SW 2 mph 3 mph 90% 0.00 in 0 W/m2
04:30 62.6 °F 59.6 °F 30.06 in SSW 1 mph 4 mph 90% 0.00 in 0 W/m2
04:40 62.4 °F 59.4 °F 30.05 in ENE 3 mph 5 mph 90% 0.00 in 0 W/m2
04:50 62.4 °F 59.4 °F 30.04 in East 2 mph 7 mph 90% 0.00 in 0 W/m2
05:00 62.4 °F 59.4 °F 30.04 in SE 3 mph 6 mph 90% 0.00 in 0 W/m2
05:10 62.2 °F 59.3 °F 30.04 in South 2 mph 5 mph 90% 0.00 in 0 W/m2
05:20 61.9 °F 59.3 °F 30.05 in SSW 3 mph 6 mph 91% 0.00 in 0 W/m2
05:30 61.9 °F 59.2 °F 30.05 in SSW 2 mph 6 mph 91% 0.00 in 0 W/m2
05:40 61.9 °F 59.2 °F 30.05 in WSW 1 mph 3 mph 91% 0.00 in 0 W/m2
05:50 61.9 °F 59.8 °F 30.04 in SSW 2 mph 6 mph 93% 0.00 in 4 W/m2
06:00 62.1 °F 60 °F 30.04 in SSE 2 mph 6 mph 93% 0.00 in 13 W/m2
06:10 62.2 °F 60.2 °F 30.04 in SSE 2 mph 4 mph 93% 0.00 in 26 W/m2
06:20 62.2 °F 60.2 °F 30.04 in SSW 2 mph 3 mph 93% 0.00 in 36 W/m2
06:30 62.4 °F 60.4 °F 30.05 in SW 2 mph 6 mph 93% 0.00 in 21 W/m2
06:40 62.7 °F 60.7 °F 30.05 in SW 2 mph 5 mph 93% 0.00 in 30 W/m2
06:50 63 °F 60.9 °F 30.05 in SW 2 mph 5 mph 93% 0.00 in 32 W/m2
07:00 63.3 °F 60.6 °F 30.05 in SW 3 mph 7 mph 91% 0.00 in 33 W/m2
07:10 63.5 °F 60.8 °F 30.05 in SW 3 mph 8 mph 91% 0.00 in 31 W/m2
07:20 63.7 °F 60.7 °F 30.05 in SW 3 mph 6 mph 90% 0.00 in 26 W/m2
07:30 63.9 °F 60.9 °F 30.05 in SW 3 mph 4 mph 90% 0.00 in 37 W/m2
07:40 64 °F 60.7 °F 30.05 in SW 2 mph 6 mph 89% 0.00 in 76 W/m2
07:50 64.3 °F 61 °F 30.05 in SW 3 mph 7 mph 89% 0.00 in 83 W/m2
08:00 64.6 °F 61.3 °F 30.05 in SSW 3 mph 7 mph 89% 0.00 in 81 W/m2
08:10 64.9 °F 61.3 °F 30.05 in SW 3 mph 6 mph 88% 0.00 in 83 W/m2
08:20 65.3 °F 61 °F 30.06 in SSW 3 mph 8 mph 86% 0.00 in 177 W/m2
08:30 65.8 °F 61.5 °F 30.05 in SW 5 mph 7 mph 86% 0.00 in 292 W/m2
08:40 66.4 °F 61.7 °F 30.06 in SSW 2 mph 7 mph 85% 0.00 in 145 W/m2
08:50 66.7 °F 61.7 °F 30.06 in South 2 mph 6 mph 84% 0.00 in 174 W/m2
09:00 66.9 °F 61.9 °F 30.05 in South 2 mph 6 mph 84% 0.00 in 248 W/m2
09:10 67.3 °F 61.9 °F 30.05 in South 2 mph 7 mph 83% 0.00 in 168 W/m2
09:20 67.5 °F 61.8 °F 30.05 in South 1 mph 6 mph 82% 0.00 in 180 W/m2
09:30 67.8 °F 61.7 °F 30.06 in SE 2 mph 5 mph 81% 0.00 in 182 W/m2
09:40 67.8 °F 61.8 °F 30.06 in SSE 3 mph 6 mph 81% 0.00 in 50 W/m2
09:50 67.8 °F 61.8 °F 30.06 in SSW 1 mph 4 mph 81% 0.00 in 87 W/m2
10:00 67.8 °F 61.8 °F 30.06 in SSW 2 mph 4 mph 81% 0.00 in 90 W/m2
10:10 68 °F 61.9 °F 30.05 in SW 1 mph 3 mph 81% 0.00 in 230 W/m2
10:20 68.5 °F 62.5 °F 30.06 in SSW 1 mph 4 mph 81% 0.00 in 288 W/m2
10:30 69.1 °F 62.3 °F 30.05 in SSE 1 mph 7 mph 79% 0.00 in 370 W/m2
10:40 69.4 °F 62.3 °F 30.04 in SSE 1 mph 7 mph 78% 0.00 in 200 W/m2
10:50 69.4 °F 62.6 °F 30.04 in East 5 mph 7 mph 79% 0.00 in 141 W/m2
11:00 69.3 °F 62.8 °F 30.04 in ESE 5 mph 8 mph 80% 0.00 in 193 W/m2
11:10 69.1 °F 63 °F 30.04 in SE 3 mph 9 mph 81% 0.00 in 233 W/m2
11:20 68.9 °F 62.8 °F 30.04 in SE 5 mph 8 mph 81% 0.00 in 239 W/m2
11:30 68.9 °F 62.8 °F 30.03 in ESE 5 mph 9 mph 81% 0.00 in 181 W/m2
11:40 69 °F 63 °F 30.02 in ESE 6 mph 11 mph 81% 0.00 in 250 W/m2
11:50 68.9 °F 62.8 °F 30.03 in SE 6 mph 11 mph 81% 0.00 in 278 W/m2
12:00 69.1 °F 63 °F 30.02 in SSE 3 mph 10 mph 81% 0.00 in 315 W/m2
12:10 69.8 °F 63.3 °F 30.02 in SE 5 mph 10 mph 80% 0.00 in 482 W/m2
12:20 70.7 °F 63.9 °F 30.02 in SE 3 mph 8 mph 79% 0.00 in 530 W/m2
12:30 71.7 °F 64.1 °F 30.02 in SE 2 mph 8 mph 77% 0.00 in 554 W/m2
12:40 72.7 °F 64.3 °F 30.02 in SW 1 mph 6 mph 75% 0.00 in 421 W/m2
12:50 73.6 °F 64.4 °F 30.01 in West 2 mph 7 mph 73% 0.00 in 548 W/m2
Knjazevac, Serbia
Compliments of Weather Underground - 2 mb